TimeEDT,TemperatureF,Dew PointF,Humidity,Sea Level PressureIn,VisibilityMPH,Wind Direction,Wind SpeedMPH,Gust SpeedMPH,PrecipitationIn,Events,Conditions,WindDirDegrees,DateUTC
12:14 AM,66.6,50.9,57,29.99,10.0,South,5.8,-,N/A,,Scattered Clouds,180,2013-09-19 04:14:00
12:35 AM,69.1,52.7,56,30.00,10.0,South,5.8,-,N/A,,Mostly Cloudy,180,2013-09-19 04:35:00
12:55 AM,68.0,52.2,57,30.00,10.0,South,8.1,-,N/A,,Mostly Cloudy,190,2013-09-19 04:55:00
1:14 AM,66.6,51.8,59,29.99,10.0,South,5.8,-,N/A,,Mostly Cloudy,190,2013-09-19 05:14:00
1:35 AM,66.4,52.9,62,30.00,10.0,SW,6.9,-,N/A,Rain,Light Rain,220,2013-09-19 05:35:00
1:55 AM,64.0,53.8,69,29.99,10.0,South,6.9,-,N/A,Rain,Light Rain,190,2013-09-19 05:55:00
2:14 AM,61.7,56.7,84,29.99,7.0,WSW,3.5,-,N/A,Rain,Rain,240,2013-09-19 06:14:00
2:35 AM,63.9,59.4,85,30.00,1.0,SW,15.0,24.2,N/A,Rain,Heavy Rain,220,2013-09-19 06:35:00
2:55 AM,62.2,57.6,85,29.98,7.0,South,9.2,-,N/A,Rain,Light Rain,180,2013-09-19 06:55:00
3:15 AM,63.9,57.9,81,29.98,10.0,South,9.2,-,N/A,,Overcast,190,2013-09-19 07:15:00
3:35 AM,64.0,57.9,80,29.97,10.0,South,6.9,-,N/A,,Overcast,190,2013-09-19 07:35:00
3:55 AM,62.8,57.9,84,29.98,7.0,SW,4.6,-,N/A,Rain,Heavy Rain,220,2013-09-19 07:55:00
4:15 AM,61.7,58.1,88,29.97,4.0,East,3.5,-,N/A,Rain,Rain,80,2013-09-19 08:15:00
4:35 AM,62.1,58.6,89,29.98,10.0,North,3.5,-,N/A,,Light Drizzle,10,2013-09-19 08:35:00
4:54 AM,62.2,59.2,90,29.99,10.0,Calm,Calm,-,N/A,,Light Drizzle,0,2013-09-19 08:54:00
5:15 AM,64.0,59.2,84,30.01,7.0,West,4.6,-,N/A,Rain,Light Rain,270,2013-09-19 09:15:00
5:35 AM,62.2,58.8,89,29.99,2.5,WNW,4.6,-,N/A,Rain,Heavy Rain,300,2013-09-19 09:35:00
5:54 AM,61.7,58.5,89,29.95,4.0,SSE,10.4,-,N/A,Rain,Heavy Rain,160,2013-09-19 09:54:00
6:15 AM,61.7,58.3,89,29.97,10.0,South,5.8,-,N/A,Rain,Light Rain,180,2013-09-19 10:15:00
6:35 AM,61.7,58.5,89,29.98,10.0,SW,5.8,-,N/A,,Scattered Clouds,220,2013-09-19 10:35:00
6:54 AM,61.7,58.1,88,29.97,10.0,SSW,5.8,-,N/A,Rain,Light Rain,210,2013-09-19 10:54:00
7:15 AM,61.7,58.5,89,29.96,7.0,SSW,5.8,-,N/A,Rain,Light Rain,200,2013-09-19 11:15:00
7:35 AM,61.7,58.1,88,29.98,10.0,SW,6.9,-,N/A,Rain,Light Rain,230,2013-09-19 11:35:00
7:54 AM,61.7,58.5,89,29.99,7.0,Calm,Calm,-,N/A,,Mostly Cloudy,0,2013-09-19 11:54:00
8:15 AM,61.7,58.6,90,29.99,5.0,South,8.1,-,N/A,Rain,Rain,180,2013-09-19 12:15:00
8:35 AM,61.7,59.0,91,30.00,2.5,NNE,5.8,-,N/A,Rain,Rain,30,2013-09-19 12:35:00
8:54 AM,61.7,59.0,91,30.00,5.0,NE,5.8,-,N/A,Rain,Light Rain,40,2013-09-19 12:54:00
9:15 AM,62.8,59.9,90,29.99,10.0,Calm,Calm,-,N/A,,Mostly Cloudy,0,2013-09-19 13:15:00
9:35 AM,65.1,61.9,89,29.98,10.0,SE,3.5,-,N/A,,Mostly Cloudy,130,2013-09-19 13:35:00
9:54 AM,66.6,62.4,86,29.97,10.0,Calm,Calm,-,N/A,,Scattered Clouds,0,2013-09-19 13:54:00
10:15 AM,69.1,63.3,82,29.95,10.0,South,5.8,-,N/A,,Clear,190,2013-09-19 14:15:00
10:35 AM,71.6,65.5,81,29.94,10.0,SSE,4.6,-,N/A,,Clear,160,2013-09-19 14:35:00
10:55 AM,71.6,63.5,76,29.94,10.0,SSW,10.4,16.1,N/A,,Clear,200,2013-09-19 14:55:00
11:15 AM,73.0,64.0,73,29.94,10.0,South,10.4,-,N/A,,Clear,190,2013-09-19 15:15:00
11:35 AM,74.3,64.8,72,29.95,10.0,SSW,15.0,19.6,N/A,,Clear,210,2013-09-19 15:35:00
11:55 AM,76.6,67.5,73,29.95,10.0,SW,15.0,23.0,N/A,,Scattered Clouds,220,2013-09-19 15:55:00
12:15 PM,76.6,67.3,73,29.95,10.0,SSW,17.3,25.3,N/A,,Scattered Clouds,210,2013-09-19 16:15:00
12:34 PM,76.3,67.8,75,29.94,10.0,SSW,21.9,26.5,N/A,,Mostly Cloudy,210,2013-09-19 16:34:00
12:55 PM,74.3,66.6,77,29.93,10.0,SW,15.0,-,N/A,,Mostly Cloudy,220,2013-09-19 16:55:00
1:15 PM,72.9,66.2,80,29.93,10.0,SSW,15.0,23.0,N/A,,Mostly Cloudy,210,2013-09-19 17:15:00
1:34 PM,74.3,67.1,78,29.92,10.0,SW,11.5,-,N/A,,Overcast,220,2013-09-19 17:34:00
1:55 PM,74.3,66.7,77,29.91,10.0,SSW,12.7,-,N/A,,Scattered Clouds,210,2013-09-19 17:55:00
2:15 PM,76.6,68.7,76,29.90,10.0,South,10.4,16.1,N/A,,Mostly Cloudy,180,2013-09-19 18:15:00
2:34 PM,76.6,68.2,75,29.90,10.0,SSW,11.5,18.4,N/A,,Mostly Cloudy,210,2013-09-19 18:34:00
2:55 PM,76.6,68.7,76,29.91,10.0,SSW,12.7,17.3,N/A,,Mostly Cloudy,200,2013-09-19 18:55:00
3:15 PM,75.2,67.1,76,29.92,10.0,SSW,16.1,19.6,N/A,,Overcast,210,2013-09-19 19:15:00
3:34 PM,76.6,68.0,75,29.92,10.0,South,11.5,17.3,N/A,,Mostly Cloudy,180,2013-09-19 19:34:00
3:55 PM,76.6,67.1,72,29.91,10.0,South,8.1,-,N/A,,Mostly Cloudy,180,2013-09-19 19:55:00
4:15 PM,76.6,65.8,69,29.91,10.0,South,9.2,-,N/A,,Scattered Clouds,190,2013-09-19 20:15:00
4:34 PM,76.6,66.6,71,29.91,10.0,SSW,9.2,-,N/A,,Clear,200,2013-09-19 20:34:00
4:55 PM,76.5,67.6,74,29.91,10.0,SSW,11.5,-,N/A,,Mostly Cloudy,200,2013-09-19 20:55:00
5:15 PM,74.3,66.4,76,29.91,10.0,South,9.2,-,N/A,,Overcast,170,2013-09-19 21:15:00
5:34 PM,74.3,66.2,76,29.90,10.0,South,11.5,-,N/A,,Mostly Cloudy,180,2013-09-19 21:34:00
5:55 PM,74.3,66.4,76,29.89,10.0,SSE,6.9,-,N/A,,Scattered Clouds,160,2013-09-19 21:55:00
6:15 PM,74.3,66.4,76,29.87,10.0,South,9.2,-,N/A,,Scattered Clouds,170,2013-09-19 22:15:00
6:34 PM,73.2,65.7,77,29.86,10.0,SSE,6.9,-,N/A,,Scattered Clouds,150,2013-09-19 22:34:00
6:55 PM,72.9,65.3,77,29.86,10.0,SSE,9.2,-,N/A,,Scattered Clouds,160,2013-09-19 22:55:00
7:14 PM,71.6,64.6,78,29.86,10.0,SSE,9.2,-,N/A,,Clear,150,2013-09-19 23:14:00
7:35 PM,71.6,65.5,81,29.85,10.0,SSE,11.5,-,N/A,,Clear,160,2013-09-19 23:35:00
7:55 PM,71.6,66.2,83,29.86,10.0,SSE,5.8,-,N/A,,Clear,160,2013-09-19 23:55:00
8:14 PM,71.6,66.4,84,29.86,10.0,South,5.8,-,N/A,,Clear,170,2013-09-20 00:14:00
8:34 PM,71.6,66.4,84,29.87,10.0,South,6.9,-,N/A,,Clear,170,2013-09-20 00:34:00
8:55 PM,71.6,66.2,83,29.87,10.0,South,11.5,16.1,N/A,,Mostly Cloudy,170,2013-09-20 00:55:00
9:14 PM,71.6,65.8,82,29.86,10.0,South,11.5,17.3,N/A,,Scattered Clouds,170,2013-09-20 01:14:00
9:34 PM,70.7,65.3,83,29.85,10.0,SSE,9.2,-,N/A,,Clear,160,2013-09-20 01:34:00
9:55 PM,69.1,64.0,84,29.84,10.0,SSE,6.9,-,N/A,,Clear,160,2013-09-20 01:55:00
10:14 PM,69.1,64.4,85,29.84,10.0,SSE,5.8,-,N/A,,Clear,150,2013-09-20 02:14:00
10:35 PM,69.1,64.4,85,29.84,10.0,SE,5.8,-,N/A,,Clear,140,2013-09-20 02:35:00
10:55 PM,69.1,64.2,84,29.84,10.0,South,8.1,-,N/A,,Scattered Clouds,190,2013-09-20 02:55:00
11:14 PM,69.6,64.2,83,29.82,10.0,South,11.5,16.1,N/A,,Mostly Cloudy,170,2013-09-20 03:14:00
11:35 PM,69.1,64.4,85,29.82,10.0,South,8.1,-,N/A,,Scattered Clouds,190,2013-09-20 03:35:00
11:55 PM,69.1,64.4,85,29.82,10.0,South,9.2,-,N/A,,Clear,190,2013-09-20 03:55:00